Starlink 5278

operational
NORAD ID: 54164 Int'l Des: 2022-141 Owner: SPXS Country: US Constellation: starlink
LEOCIRCULAR

关于 Starlink 5278

正在加载描述...

实时位置

正在加载3D地球...

即将过境

高度历史

Altitude vs Time

uPlot chart will show altitude changes over time

两行轨道根数

1 54164U 22141H 25353.46624426 .00000410 00000-0 43874-4 0 9997
2 54164 53.2181 4.4665 0001347 88.8658 271.2488 15.08834530173746
Epoch: Dec 19, 2025 • Age: 21 hours

当前状态

高度 541.2 km
速度 7.59 km/s
星下点 -3.63°S, 36.1°W
发射日期 Oct 28, 2022
运行时间 3.1 years
类型 internet

技术详情

分类 Payload
质量 305.00 kg
干质量 290.00 kg
总质量 305.00 kg
长度 0.20 m
直径 2.80 m
跨度 9.00 m
形状 Box + pan
制造商 SPXS
平台类型 Starlink
阶段状态 In Orbit
所有者/国家 SPXS/US

大型星座

Loading constellations...